DAL274 RJTT-KDTW

Flight info

Callsign DAL274
Flight time N/A
Altitude 35000
Route INUBO Y808 NOLAX Y812 ADNAP OTR5 KALNA 42N160E 43N170E 44N180W 44N170W 45N160W 45N150W 43N140W 41N130W DCT TRYSH DCT REDWD DCT RBL DCT BAM J94 LCU Q122 ONL J148 MCW DCT ZZIPR DCT SIBER DCT BAE DCT PORZL RKCTY2
Aircraft A359/H-SDE2E3GHIJ1J3J4J5LM1ORWXY/LB1D1

Departure

Time 2026-05-06 04:31
Airport Tokyo Haneda International Airport (RJTT)

Arrival

Time N/A
Airport Detroit Metropolitan Wayne County Airport (KDTW)
Time Latitude Longitude Altitude Speed Heading
2026-05-06 04:08 35.54995 139.76957 29 ft 0 kts 150°
2026-05-06 04:08 35.55009 139.76947 30 ft 12 kts 150°
2026-05-06 04:21 35.55009 139.76948 29 ft 5 kts 150°
2026-05-06 04:21 35.55050 139.76930 30 ft 387 kts 150°
2026-05-06 04:21 35.55002 139.76952 29 ft 0 kts 150°
2026-05-06 04:23 35.55007 139.76949 29 ft 3 kts 148°
2026-05-06 04:24 35.55028 139.76929 27 ft 4 kts 130°
2026-05-06 04:24 35.55041 139.76901 27 ft 4 kts 98°
2026-05-06 04:24 35.55038 139.76874 26 ft 1 kts 61°
2026-05-06 04:24 35.55038 139.76873 27 ft 5 kts 61°
2026-05-06 04:27 35.55038 139.76874 27 ft 1 kts 61°
2026-05-06 04:27 35.55062 139.76923 28 ft 8 kts 59°
2026-05-06 04:27 35.55087 139.76981 29 ft 7 kts 62°
2026-05-06 04:28 35.55110 139.77033 29 ft 7 kts 62°
2026-05-06 04:28 35.55151 139.77092 29 ft 15 kts 30°
2026-05-06 04:28 35.55237 139.77070 29 ft 12 kts 327°
2026-05-06 04:28 35.55309 139.77013 29 ft 13 kts 327°
2026-05-06 04:29 35.55385 139.76957 29 ft 13 kts 332°
2026-05-06 04:29 35.55470 139.76912 29 ft 13 kts 353°
2026-05-06 04:29 35.55553 139.76955 29 ft 12 kts 29°
2026-05-06 04:29 35.55613 139.77005 29 ft 10 kts 37°
2026-05-06 04:30 35.55664 139.77053 30 ft 8 kts 37°
2026-05-06 04:30 35.55682 139.77087 31 ft 3 kts 86°
2026-05-06 04:30 35.55640 139.77161 31 ft 15 kts 147°
2026-05-06 04:30 35.55413 139.77324 31 ft 65 kts 150°
2026-05-06 04:31 35.54864 139.77709 31 ft 115 kts 150°
2026-05-06 04:31 35.54047 139.78282 39 ft 155 kts 150°
2026-05-06 04:31 35.53173 139.78950 572 ft 145 kts 146°
2026-05-06 04:31 35.52288 139.79626 752 ft 156 kts 150°
2026-05-06 04:32 35.51309 139.80323 935 ft 170 kts 152°
2026-05-06 04:32 35.50249 139.81070 1177 ft 186 kts 151°
2026-05-06 04:32 35.49047 139.81924 1376 ft 208 kts 150°
2026-05-06 04:32 35.47737 139.82862 1611 ft 228 kts 150°
2026-05-06 04:33 35.46349 139.83860 2003 ft 238 kts 150°
2026-05-06 04:33 35.45030 139.85124 2562 ft 247 kts 133°
2026-05-06 04:33 35.44292 139.87055 3151 ft 260 kts 100°
2026-05-06 04:33 35.44560 139.89281 3744 ft 272 kts 68°
2026-05-06 04:34 35.45452 139.91364 4305 ft 279 kts 61°
2026-05-06 04:34 35.46429 139.93403 5023 ft 282 kts 61°
2026-05-06 04:34 35.47422 139.95499 5722 ft 287 kts 62°
2026-05-06 04:34 35.48564 139.97527 6421 ft 294 kts 47°
2026-05-06 04:35 35.50283 139.98869 6971 ft 297 kts 15°
2026-05-06 04:35 35.52314 139.98974 7592 ft 293 kts 346°
2026-05-06 04:35 35.54300 139.98389 8234 ft 294 kts 345°
2026-05-06 04:35 35.56277 139.97718 8844 ft 296 kts 342°
2026-05-06 04:36 35.58258 139.97001 9452 ft 299 kts 342°
2026-05-06 04:36 35.60271 139.96316 10087 ft 301 kts 347°
2026-05-06 04:36 35.62395 139.96092 10400 ft 314 kts
2026-05-06 04:36 35.64630 139.96212 10623 ft 330 kts
2026-05-06 04:37 35.66944 139.96382 10881 ft 344 kts
2026-05-06 04:37 35.69384 139.96555 11131 ft 358 kts
2026-05-06 04:37 35.71920 139.96713 11393 ft 371 kts
2026-05-06 04:37 35.74522 139.96358 11626 ft 382 kts 343°
2026-05-06 04:38 35.77071 139.95299 11884 ft 391 kts 338°
2026-05-06 04:38 35.79627 139.94082 12341 ft 396 kts 336°
2026-05-06 04:38 35.82204 139.92849 12865 ft 398 kts 337°
2026-05-06 04:38 35.84792 139.91619 13459 ft 398 kts 337°
2026-05-06 04:39 35.87385 139.90392 14011 ft 400 kts 336°
2026-05-06 04:39 35.89992 139.89161 14450 ft 402 kts 336°
2026-05-06 04:39 35.92614 139.87930 14909 ft 404 kts 337°
2026-05-06 04:39 35.95257 139.86698 15352 ft 408 kts 338°
2026-05-06 04:40 35.98032 139.85871 15717 ft 416 kts 352°
2026-05-06 04:40 36.00907 139.86074 16111 ft 425 kts 10°
2026-05-06 04:40 36.03749 139.87182 16494 ft 432 kts 18°
2026-05-06 04:40 36.06571 139.88512 16835 ft 436 kts 18°
2026-05-06 04:41 36.09414 139.89869 17123 ft 440 kts 18°
2026-05-06 04:41 36.12268 139.91224 17191 ft 439 kts 18°
2026-05-06 04:41 36.15115 139.92605 17188 ft 439 kts 21°
2026-05-06 04:41 36.17751 139.94538 17190 ft 444 kts 38°
2026-05-06 04:42 36.19824 139.97370 17183 ft 446 kts 56°
2026-05-06 04:42 36.21111 140.00842 17189 ft 445 kts 75°
2026-05-06 04:42 36.21762 140.04587 17189 ft 445 kts 80°
2026-05-06 04:42 36.22305 140.08362 17174 ft 445 kts 80°
2026-05-06 04:43 36.22862 140.12133 17172 ft 445 kts 80°
2026-05-06 04:43 36.23439 140.15902 17170 ft 446 kts 79°
2026-05-06 04:43 36.24019 140.19680 17180 ft 446 kts 81°
2026-05-06 04:43 36.24280 140.23484 17182 ft 443 kts 92°
2026-05-06 04:44 36.23810 140.27235 17176 ft 439 kts 109°
2026-05-06 04:44 36.22588 140.30672 17234 ft 436 kts 125°
2026-05-06 04:44 36.20704 140.33587 17610 ft 432 kts 140°
2026-05-06 04:44 36.18416 140.36001 18066 ft 431 kts 146°
2026-05-06 04:45 36.16040 140.38288 18482 ft 434 kts 147°
2026-05-06 04:45 36.13643 140.40579 18819 ft 438 kts 147°
2026-05-06 04:45 36.11257 140.42867 19111 ft 442 kts 147°
2026-05-06 04:45 36.08815 140.45215 19422 ft 446 kts 147°
2026-05-06 04:46 36.06351 140.47587 19737 ft 450 kts 148°
2026-05-06 04:46 36.03868 140.49979 20047 ft 455 kts 148°
2026-05-06 04:46 36.01359 140.52395 20381 ft 458 kts 148°
2026-05-06 04:46 35.98836 140.54823 20675 ft 462 kts 148°
2026-05-06 04:47 35.96285 140.57277 20988 ft 466 kts 149°
2026-05-06 04:47 35.93709 140.59753 21304 ft 470 kts 149°
2026-05-06 04:47 35.91118 140.62242 21609 ft 474 kts 149°
2026-05-06 04:47 35.88505 140.64750 21914 ft 478 kts 149°
2026-05-06 04:48 35.85867 140.67279 22225 ft 481 kts 149°
2026-05-06 04:48 35.83213 140.69822 22519 ft 485 kts 150°
2026-05-06 04:48 35.80573 140.72349 22797 ft 489 kts 150°
2026-05-06 04:48 35.77872 140.74933 23110 ft 493 kts 150°
2026-05-06 04:49 35.75233 140.77688 23413 ft 504 kts 143°
2026-05-06 04:49 35.72931 140.81015 23714 ft 519 kts 131°
2026-05-06 04:49 35.71160 140.84954 23964 ft 532 kts 119°
2026-05-06 04:49 35.69748 140.89175 24317 ft 534 kts 116°
2026-05-06 04:50 35.68471 140.93470 24782 ft 534 kts 114°
2026-05-06 04:50 35.67246 140.97790 25129 ft 536 kts 114°
2026-05-06 04:50 35.66025 141.02130 25441 ft 538 kts 115°
2026-05-06 04:50 35.64791 141.06469 25769 ft 539 kts 115°
2026-05-06 04:51 35.63540 141.10798 26115 ft 540 kts 115°
2026-05-06 04:51 35.62264 141.15157 26429 ft 542 kts 116°
2026-05-06 04:51 35.60985 141.19479 26653 ft 546 kts 116°
2026-05-06 04:51 35.59677 141.23875 26918 ft 549 kts 116°
2026-05-06 04:52 35.58358 141.28294 27237 ft 551 kts 116°
2026-05-06 04:52 35.57037 141.32717 27536 ft 553 kts 116°
2026-05-06 04:52 35.55706 141.37166 27838 ft 555 kts 116°
2026-05-06 04:52 35.54369 141.41630 28128 ft 557 kts 117°
2026-05-06 04:53 35.53029 141.46102 28371 ft 559 kts 116°
2026-05-06 04:53 35.51675 141.50609 28510 ft 564 kts 116°
2026-05-06 04:53 35.50315 141.55132 28748 ft 567 kts 117°
2026-05-06 04:53 35.48945 141.59685 29005 ft 568 kts 117°
2026-05-06 04:54 35.47587 141.64191 29240 ft 570 kts 117°
2026-05-06 04:54 35.46204 141.68773 29472 ft 572 kts 117°
2026-05-06 04:54 35.44999 141.73460 29776 ft 580 kts 109°
2026-05-06 04:54 35.44380 141.78375 30207 ft 585 kts 98°
2026-05-06 04:55 35.44164 141.83355 30631 ft 583 kts 96°
2026-05-06 04:55 35.44059 141.88362 30745 ft 588 kts 94°
2026-05-06 04:55 35.44021 141.93378 30946 ft 589 kts 94°
2026-05-06 04:55 35.44013 141.98337 31222 ft 589 kts 94°
2026-05-06 04:56 35.44007 142.03366 31486 ft 589 kts 94°
2026-05-06 04:56 35.43992 142.08384 31751 ft 589 kts 94°
2026-05-06 04:56 35.43964 142.13400 32017 ft 588 kts 94°
2026-05-06 04:56 35.43925 142.18425 32267 ft 588 kts 94°
2026-05-06 04:57 35.43878 142.23432 32511 ft 587 kts 94°
2026-05-06 04:57 35.43827 142.28434 32800 ft 585 kts 94°
2026-05-06 04:57 35.43774 142.33403 33296 ft 579 kts 94°
2026-05-06 04:57 35.43719 142.38344 33531 ft 580 kts 94°
2026-05-06 04:58 35.43661 142.43288 33691 ft 580 kts 94°
2026-05-06 04:58 35.43601 142.48238 33903 ft 580 kts 94°
2026-05-06 04:58 35.43541 142.53181 34127 ft 580 kts 94°
2026-05-06 04:58 35.43481 142.58122 34362 ft 579 kts 94°
2026-05-06 04:59 35.43420 142.62999 34529 ft 579 kts 94°
2026-05-06 04:59 35.43354 142.67937 34662 ft 579 kts 94°
2026-05-06 04:59 35.43284 142.72872 34800 ft 580 kts 94°
2026-05-06 04:59 35.43212 142.77821 34963 ft 580 kts 94°
2026-05-06 05:00 35.43138 142.82771 35040 ft 581 kts 94°
2026-05-06 05:00 35.43063 142.87727 35208 ft 581 kts 94°
2026-05-06 05:00 35.42986 142.92696 35239 ft 584 kts 94°
2026-05-06 05:01 35.42825 143.02680 35239 ft 586 kts 94°
2026-05-06 05:01 35.42657 143.12687 35244 ft 587 kts 94°
2026-05-06 05:02 35.42508 143.22702 35242 ft 588 kts 90°
2026-05-06 05:02 35.42902 143.27689 35253 ft 589 kts 79°
2026-05-06 05:02 35.43978 143.32459 35249 ft 586 kts 66°
2026-05-06 05:02 35.45782 143.36908 35253 ft 580 kts 53°
2026-05-06 05:03 35.48204 143.40804 35252 ft 572 kts 43°
2026-05-06 05:03 35.53627 143.47967 35251 ft 571 kts 39°
2026-05-06 05:04 35.59193 143.54908 35255 ft 570 kts 39°
2026-05-06 05:04 35.64744 143.61883 35254 ft 570 kts 39°
2026-05-06 05:05 35.70224 143.68868 35253 ft 570 kts 40°
2026-05-06 05:05 35.75722 143.75926 35250 ft 570 kts 40°
2026-05-06 05:06 35.81238 143.83022 35267 ft 577 kts 40°
2026-05-06 05:06 35.86799 143.90188 35263 ft 579 kts 40°
2026-05-06 05:07 35.92322 143.97326 35255 ft 578 kts 40°
2026-05-06 05:07 35.97880 144.04522 35258 ft 578 kts 40°
2026-05-06 05:08 36.02502 144.10518 35258 ft 578 kts 40°
2026-05-06 05:08 36.08042 144.17731 35259 ft 578 kts 40°
2026-05-06 05:09 36.14484 144.26133 35265 ft 578 kts 40°
2026-05-06 05:09 36.20013 144.33362 35262 ft 579 kts 40°
2026-05-06 05:10 36.24618 144.39395 35260 ft 579 kts 40°
2026-05-06 05:10 36.30151 144.46660 35259 ft 579 kts 40°
2026-05-06 05:11 36.35679 144.53935 35265 ft 579 kts 40°
2026-05-06 05:11 36.41194 144.61210 35262 ft 579 kts 40°
2026-05-06 05:12 36.46708 144.68498 35258 ft 579 kts 40°
2026-05-06 05:12 36.52220 144.75799 35294 ft 579 kts 40°
2026-05-06 05:13 36.57695 144.83066 35258 ft 580 kts 40°
2026-05-06 05:13 36.63213 144.90408 35263 ft 580 kts 40°
2026-05-06 05:14 36.68725 144.97759 35261 ft 580 kts 40°
2026-05-06 05:14 36.74229 145.05117 35262 ft 580 kts 40°
2026-05-06 05:15 36.79731 145.12489 35265 ft 580 kts 40°
2026-05-06 05:15 36.85191 145.19821 35265 ft 580 kts 40°
2026-05-06 05:16 36.90678 145.27205 35274 ft 580 kts 40°
2026-05-06 05:16 36.96170 145.34612 35265 ft 582 kts 40°
2026-05-06 05:17 37.01679 145.42058 35268 ft 582 kts 40°
2026-05-06 05:17 37.07178 145.49510 35269 ft 582 kts 40°
2026-05-06 05:18 37.12669 145.56969 35266 ft 583 kts 39°
2026-05-06 05:18 37.18123 145.64417 35254 ft 585 kts 41°
2026-05-06 05:19 37.22893 145.72841 35270 ft 594 kts 51°
2026-05-06 05:19 37.27338 145.81631 35277 ft 596 kts 52°
2026-05-06 05:20 37.31714 145.90503 35274 ft 598 kts 52°
2026-05-06 05:20 37.36070 145.99337 35268 ft 598 kts 52°
2026-05-06 05:21 37.40461 146.08216 35278 ft 598 kts 52°
2026-05-06 05:21 37.44857 146.17108 35271 ft 599 kts 52°
2026-05-06 05:22 37.49251 146.26019 35272 ft 599 kts 52°
2026-05-06 05:22 37.53640 146.34950 35277 ft 598 kts 52°
2026-05-06 05:23 37.57997 146.43841 35271 ft 598 kts 52°
2026-05-06 05:23 37.64544 146.57245 35269 ft 598 kts 52°
2026-05-06 05:24 37.68901 146.66195 35276 ft 598 kts 52°
2026-05-06 05:24 37.73254 146.75162 35277 ft 598 kts 52°
2026-05-06 05:25 37.77577 146.84091 35274 ft 598 kts 52°
2026-05-06 05:25 37.81915 146.93077 35273 ft 598 kts 52°
2026-05-06 05:26 37.86252 147.02084 35297 ft 598 kts 52°
2026-05-06 05:26 37.90576 147.11089 35283 ft 599 kts 52°
2026-05-06 05:27 37.94898 147.20115 35276 ft 599 kts 52°
2026-05-06 05:27 37.99189 147.29100 35276 ft 599 kts 52°
2026-05-06 05:28 38.03500 147.38153 35296 ft 599 kts 52°
2026-05-06 05:28 38.07808 147.47227 35279 ft 600 kts 52°
2026-05-06 05:29 38.12111 147.56313 35281 ft 600 kts 52°
2026-05-06 05:29 38.16407 147.65412 35298 ft 600 kts 52°
2026-05-06 05:30 38.20674 147.74474 35283 ft 600 kts 52°
2026-05-06 05:30 38.24958 147.83597 35287 ft 601 kts 52°
2026-05-06 05:31 38.29238 147.92738 35304 ft 601 kts 52°
2026-05-06 05:31 38.33510 148.01888 35285 ft 601 kts 52°
2026-05-06 05:32 38.37773 148.11044 35296 ft 601 kts 52°
2026-05-06 05:32 38.42031 148.20217 35301 ft 601 kts 52°
2026-05-06 05:33 38.46259 148.29351 35291 ft 601 kts 52°
2026-05-06 05:33 38.50517 148.38574 35283 ft 602 kts 52°
2026-05-06 05:34 38.54765 148.47803 35285 ft 603 kts 52°
2026-05-06 05:34 38.59005 148.57045 35283 ft 602 kts 53°
2026-05-06 05:35 38.63232 148.66282 35286 ft 602 kts 53°
2026-05-06 05:35 38.67421 148.75462 35290 ft 602 kts 53°
2026-05-06 05:36 38.71636 148.84728 35289 ft 600 kts 53°
2026-05-06 05:36 38.75827 148.93967 35283 ft 600 kts 53°
2026-05-06 05:37 38.80014 149.03222 35280 ft 600 kts 53°
2026-05-06 05:37 38.84192 149.12484 35280 ft 599 kts 54°
2026-05-06 05:38 38.88353 149.21739 35278 ft 598 kts 54°
2026-05-06 05:38 38.92485 149.30954 35271 ft 599 kts 54°
2026-05-06 05:39 38.96635 149.40235 35278 ft 599 kts 54°
2026-05-06 05:39 39.00777 149.49527 35291 ft 599 kts 54°
2026-05-06 05:40 39.04914 149.58835 35281 ft 599 kts 54°
2026-05-06 05:40 39.09014 149.68088 35283 ft 598 kts 54°
2026-05-06 05:41 39.13123 149.77390 35280 ft 597 kts 54°
2026-05-06 05:41 39.16873 149.86996 35276 ft 602 kts 61°
2026-05-06 05:42 39.20255 149.96877 35284 ft 602 kts 62°
2026-05-06 05:42 39.23561 150.06811 35284 ft 602 kts 63°
2026-05-06 05:43 39.26856 150.16755 35281 ft 602 kts 63°
2026-05-06 05:43 39.30148 150.26680 35285 ft 601 kts 63°
2026-05-06 05:44 39.33438 150.36613 35284 ft 601 kts 63°
2026-05-06 05:44 39.36696 150.46480 35297 ft 601 kts 63°
2026-05-06 05:45 39.39966 150.56425 35289 ft 600 kts 63°
2026-05-06 05:45 39.43215 150.66342 35293 ft 599 kts 63°
2026-05-06 05:46 39.46462 150.76282 35304 ft 599 kts 63°
2026-05-06 05:46 39.49694 150.86219 35295 ft 598 kts 63°
2026-05-06 05:47 39.52917 150.96158 35296 ft 598 kts 63°
2026-05-06 05:47 39.56109 151.06038 35295 ft 598 kts 63°
2026-05-06 05:48 39.59308 151.15976 35293 ft 597 kts 64°
2026-05-06 05:48 39.62501 151.25928 35293 ft 597 kts 64°
2026-05-06 05:49 39.65683 151.35884 35296 ft 597 kts 64°
2026-05-06 05:49 39.68858 151.45855 35295 ft 596 kts 64°
2026-05-06 05:50 39.72021 151.55823 35295 ft 596 kts 64°
2026-05-06 05:50 39.75172 151.65786 35305 ft 596 kts 64°
2026-05-06 05:51 39.78311 151.75754 35298 ft 595 kts 64°
2026-05-06 05:51 39.81420 151.85658 35300 ft 595 kts 64°
2026-05-06 05:52 39.84544 151.95645 35309 ft 595 kts 64°
2026-05-06 05:52 39.87655 152.05628 35300 ft 593 kts 64°
2026-05-06 05:53 39.90750 152.15597 35300 ft 593 kts 64°
2026-05-06 05:53 39.93818 152.25513 35300 ft 593 kts 64°
2026-05-06 05:54 39.96904 152.35526 35301 ft 593 kts 64°
2026-05-06 05:54 39.99977 152.45533 35303 ft 593 kts 64°
2026-05-06 05:55 40.03041 152.55548 35304 ft 593 kts 64°
2026-05-06 05:55 40.06067 152.65477 35327 ft 592 kts 64°
2026-05-06 05:56 40.09089 152.75434 35295 ft 587 kts 65°
2026-05-06 05:56 40.12088 152.85346 35308 ft 586 kts 65°
2026-05-06 05:57 40.15072 152.95242 35298 ft 584 kts 65°
2026-05-06 05:57 40.18042 153.05130 35300 ft 584 kts 65°
2026-05-06 05:58 40.21004 153.15028 35308 ft 584 kts 65°
2026-05-06 05:58 40.23929 153.24842 35302 ft 582 kts 65°
2026-05-06 05:59 40.26864 153.34722 35300 ft 581 kts 65°
2026-05-06 05:59 40.29786 153.44595 35305 ft 581 kts 65°
2026-05-06 06:00 40.32204 153.52797 35303 ft 579 kts 65°
2026-05-06 06:00 40.35097 153.62642 35305 ft 579 kts 65°
2026-05-06 06:01 40.37985 153.72506 35302 ft 578 kts 65°
2026-05-06 06:01 40.40858 153.82353 35306 ft 577 kts 66°
2026-05-06 06:02 40.43714 153.92185 35306 ft 576 kts 66°
2026-05-06 06:02 40.46567 154.02039 35304 ft 576 kts 66°
2026-05-06 06:03 40.49388 154.11819 35309 ft 575 kts 66°
2026-05-06 06:03 40.52211 154.21645 35305 ft 574 kts 66°
2026-05-06 06:04 40.55022 154.31467 35304 ft 574 kts 66°
2026-05-06 06:04 40.57827 154.41302 35307 ft 573 kts 66°
2026-05-06 06:05 40.60614 154.51117 35303 ft 572 kts 66°
2026-05-06 06:05 40.63392 154.60934 35302 ft 572 kts 66°
2026-05-06 06:06 40.66166 154.70771 35306 ft 572 kts 66°
2026-05-06 06:06 40.68925 154.80599 35302 ft 571 kts 66°
2026-05-06 06:07 40.71656 154.90361 35300 ft 571 kts 66°
2026-05-06 06:07 40.74399 155.00204 35314 ft 571 kts 66°
2026-05-06 06:08 40.77123 155.10021 35302 ft 569 kts 67°
2026-05-06 06:08 40.79842 155.19852 35300 ft 569 kts 67°
2026-05-06 06:09 40.82549 155.29679 35304 ft 569 kts 67°
2026-05-06 06:09 40.85250 155.39524 35303 ft 570 kts 67°
2026-05-06 06:10 40.87925 155.49311 35301 ft 570 kts 67°
2026-05-06 06:10 40.90611 155.59178 35299 ft 570 kts 67°
2026-05-06 06:11 40.93282 155.69032 35305 ft 569 kts 67°
2026-05-06 06:11 40.95942 155.78882 35303 ft 568 kts 67°
2026-05-06 06:12 40.98594 155.88740 35301 ft 568 kts 68°
2026-05-06 06:12 41.01218 155.98534 35295 ft 567 kts 68°
2026-05-06 06:13 41.03846 156.08381 35295 ft 567 kts 68°
2026-05-06 06:13 41.06463 156.18225 35296 ft 567 kts 68°
2026-05-06 06:14 41.09075 156.28090 35299 ft 566 kts 68°
2026-05-06 06:14 41.11673 156.37945 35295 ft 565 kts 68°
2026-05-06 06:15 41.14260 156.47793 35293 ft 565 kts 68°
2026-05-06 06:15 41.16822 156.57586 35305 ft 565 kts 68°
2026-05-06 06:16 41.19391 156.67447 35292 ft 564 kts 68°
2026-05-06 06:16 41.21946 156.77295 35294 ft 563 kts 68°
2026-05-06 06:17 41.24486 156.87126 35294 ft 560 kts 69°
2026-05-06 06:17 41.27003 156.96908 35295 ft 557 kts 69°
2026-05-06 06:18 41.29490 157.06607 35295 ft 557 kts 69°
2026-05-06 06:18 41.31979 157.16356 35293 ft 557 kts 69°
2026-05-06 06:19 41.34466 157.26135 35294 ft 556 kts 69°
2026-05-06 06:19 41.36933 157.35879 35292 ft 555 kts 69°
2026-05-06 06:20 41.39395 157.45643 35290 ft 555 kts 69°
2026-05-06 06:20 41.41843 157.55392 35302 ft 555 kts 69°
2026-05-06 06:21 41.44282 157.65144 35287 ft 554 kts 69°
2026-05-06 06:21 41.46694 157.74827 35287 ft 554 kts 69°
2026-05-06 06:22 41.49110 157.84567 35282 ft 554 kts 69°
2026-05-06 06:22 41.51524 157.94338 35281 ft 553 kts 69°
2026-05-06 06:23 41.53923 158.04091 35284 ft 553 kts 69°
2026-05-06 06:23 41.56315 158.13855 35284 ft 553 kts 69°
2026-05-06 06:24 41.58701 158.23637 35285 ft 553 kts 69°
2026-05-06 06:24 41.61075 158.33410 35281 ft 553 kts 69°
2026-05-06 06:25 41.63440 158.43185 35281 ft 552 kts 69°
2026-05-06 06:26 41.66958 158.57806 35275 ft 552 kts 69°
2026-05-06 06:26 41.69300 158.67594 35276 ft 552 kts 69°
2026-05-06 06:27 41.71635 158.77391 35279 ft 552 kts 69°
2026-05-06 06:27 41.73963 158.87199 35287 ft 553 kts 69°
2026-05-06 06:28 41.76283 158.97020 35276 ft 552 kts 69°
2026-05-06 06:28 41.78581 159.06789 35276 ft 552 kts 70°
2026-05-06 06:29 41.80883 159.16617 35274 ft 552 kts 70°
2026-05-06 06:29 41.83174 159.26444 35271 ft 552 kts 70°
2026-05-06 06:30 41.85455 159.36266 35272 ft 552 kts 70°
2026-05-06 06:30 41.87713 159.46031 35265 ft 552 kts 70°
2026-05-06 06:31 41.89978 159.55874 35266 ft 552 kts 70°
2026-05-06 06:31 41.92237 159.65730 35259 ft 552 kts 70°
2026-05-06 06:32 41.94486 159.75589 35257 ft 552 kts 70°
2026-05-06 06:32 41.96726 159.85452 35257 ft 552 kts 70°
2026-05-06 06:33 41.98961 159.95336 35254 ft 552 kts 70°
2026-05-06 06:33 42.00776 160.05308 35254 ft 554 kts 76°
2026-05-06 06:34 42.02283 160.15468 35258 ft 555 kts 77°
2026-05-06 06:34 42.03736 160.25689 35257 ft 555 kts 77°
2026-05-06 06:35 42.05180 160.35893 35257 ft 555 kts 77°
2026-05-06 06:35 42.06624 160.46103 35254 ft 555 kts 77°
2026-05-06 06:36 42.08064 160.56328 35249 ft 555 kts 77°
2026-05-06 06:36 42.09485 160.66480 35249 ft 556 kts 77°
2026-05-06 06:37 42.10908 160.76719 35257 ft 556 kts 77°
2026-05-06 06:37 42.12320 160.86949 35251 ft 556 kts 77°
2026-05-06 06:38 42.13724 160.97195 35251 ft 556 kts 77°
2026-05-06 06:38 42.15121 161.07457 35249 ft 556 kts 77°
2026-05-06 06:39 42.16508 161.17718 35256 ft 556 kts 77°
2026-05-06 06:39 42.17878 161.27930 35253 ft 557 kts 77°
2026-05-06 06:40 42.19249 161.38213 35247 ft 557 kts 77°
2026-05-06 06:40 42.20610 161.48504 35243 ft 557 kts 77°
2026-05-06 06:41 42.21964 161.58809 35251 ft 558 kts 77°
2026-05-06 06:41 42.23311 161.69136 35241 ft 558 kts 77°
2026-05-06 06:42 42.24648 161.79466 35240 ft 558 kts 77°
2026-05-06 06:42 42.25967 161.89729 35239 ft 558 kts 77°
2026-05-06 06:43 42.27285 162.00069 35235 ft 559 kts 77°
2026-05-06 06:43 42.28595 162.10415 35235 ft 559 kts 77°
2026-05-06 06:44 42.29896 162.20763 35235 ft 559 kts 78°
2026-05-06 06:44 42.31188 162.31126 35234 ft 559 kts 78°
2026-05-06 06:45 42.32463 162.41431 35232 ft 559 kts 78°
2026-05-06 06:45 42.33738 162.51810 35233 ft 559 kts 78°
2026-05-06 06:46 42.35002 162.62183 35237 ft 559 kts 78°
2026-05-06 06:46 42.36257 162.72562 35230 ft 560 kts 78°
2026-05-06 06:47 42.37504 162.82964 35233 ft 560 kts 78°
2026-05-06 06:47 42.38741 162.93359 35232 ft 560 kts 78°
2026-05-06 06:48 42.39963 163.03705 35237 ft 560 kts 78°
2026-05-06 06:48 42.41182 163.14120 35234 ft 561 kts 78°
2026-05-06 06:49 42.42394 163.24550 35228 ft 561 kts 78°
2026-05-06 06:49 42.43596 163.34987 35233 ft 561 kts 78°
2026-05-06 06:50 42.44589 163.43670 35238 ft 561 kts 78°
2026-05-06 06:50 42.45775 163.54126 35228 ft 561 kts 79°
2026-05-06 06:51 42.47144 163.66300 35241 ft 562 kts 79°
2026-05-06 06:51 42.48121 163.75064 35225 ft 562 kts 79°
2026-05-06 06:52 42.49280 163.85547 35224 ft 562 kts 79°
2026-05-06 06:52 42.50422 163.95964 35224 ft 562 kts 79°
2026-05-06 06:53 42.51563 164.06459 35220 ft 563 kts 79°
2026-05-06 06:53 42.52695 164.16963 35218 ft 563 kts 79°
2026-05-06 06:54 42.53819 164.27486 35206 ft 562 kts 79°
2026-05-06 06:54 42.54929 164.37974 35213 ft 562 kts 79°
2026-05-06 06:55 42.56023 164.48402 35216 ft 562 kts 79°
2026-05-06 06:55 42.57117 164.58920 35217 ft 562 kts 79°
2026-05-06 06:56 42.58199 164.69426 35217 ft 562 kts 79°
2026-05-06 06:56 42.59272 164.79946 35210 ft 563 kts 79°
2026-05-06 06:57 42.60340 164.90500 35210 ft 564 kts 79°
2026-05-06 06:57 42.61395 165.01036 35210 ft 563 kts 79°
2026-05-06 06:58 42.62434 165.11515 35213 ft 564 kts 79°
2026-05-06 06:58 42.63474 165.22094 35207 ft 565 kts 79°
2026-05-06 06:59 42.64505 165.32696 35209 ft 566 kts 79°
2026-05-06 06:59 42.65526 165.43287 35215 ft 566 kts 80°
2026-05-06 07:00 42.66537 165.53891 35212 ft 566 kts 80°
2026-05-06 07:00 42.67539 165.64501 35211 ft 566 kts 80°
2026-05-06 07:01 42.68532 165.75117 35210 ft 566 kts 80°
2026-05-06 07:01 42.69508 165.85672 35209 ft 566 kts 80°
2026-05-06 07:02 42.70483 165.96309 35208 ft 567 kts 80°
2026-05-06 07:02 42.71450 166.06976 35208 ft 567 kts 80°
2026-05-06 07:03 42.72405 166.17629 35208 ft 567 kts 80°
2026-05-06 07:03 42.73351 166.28298 35207 ft 568 kts 80°
2026-05-06 07:04 42.74288 166.38973 35207 ft 568 kts 80°
2026-05-06 07:04 42.75210 166.49585 35208 ft 568 kts 80°
2026-05-06 07:05 42.76129 166.60286 35203 ft 569 kts 81°
2026-05-06 07:05 42.77038 166.70999 35200 ft 570 kts 81°
2026-05-06 07:06 42.77939 166.81725 35198 ft 570 kts 81°
2026-05-06 07:06 42.78828 166.92446 35201 ft 570 kts 81°
2026-05-06 07:07 42.79705 167.03131 35202 ft 570 kts 81°
2026-05-06 07:07 42.80576 167.13866 35197 ft 570 kts 81°
2026-05-06 07:08 42.81436 167.24601 35210 ft 571 kts 81°
2026-05-06 07:08 42.82287 167.35356 35198 ft 571 kts 81°
2026-05-06 07:09 42.83131 167.46144 35193 ft 572 kts 81°
2026-05-06 07:09 42.83965 167.56935 35194 ft 572 kts 81°
2026-05-06 07:10 42.84781 167.67641 35190 ft 572 kts 81°
2026-05-06 07:10 42.85594 167.78432 35200 ft 572 kts 81°
2026-05-06 07:11 42.86396 167.89204 35199 ft 572 kts 82°
2026-05-06 07:11 42.87189 168.00010 35203 ft 572 kts 82°
2026-05-06 07:12 42.87971 168.10799 35195 ft 572 kts 82°
2026-05-06 07:12 42.88745 168.21616 35196 ft 572 kts 82°
2026-05-06 07:13 42.89502 168.32355 35200 ft 572 kts 82°
2026-05-06 07:13 42.90255 168.43170 35196 ft 573 kts 82°
2026-05-06 07:14 42.90999 168.54001 35186 ft 573 kts 82°
2026-05-06 07:14 42.91733 168.64850 35190 ft 573 kts 82°
2026-05-06 07:15 42.92456 168.75694 35192 ft 573 kts 83°
2026-05-06 07:15 42.93170 168.86543 35190 ft 574 kts 83°
2026-05-06 07:16 42.93868 168.97323 35194 ft 574 kts 83°
2026-05-06 07:16 42.94565 169.08239 35189 ft 574 kts 83°
2026-05-06 07:17 42.95244 169.19034 35182 ft 574 kts 83°
2026-05-06 07:17 42.95917 169.29902 35187 ft 574 kts 83°
2026-05-06 07:18 42.96580 169.40769 35188 ft 574 kts 83°
2026-05-06 07:18 42.97232 169.51641 35187 ft 575 kts 83°
2026-05-06 07:19 42.97875 169.62528 35182 ft 575 kts 83°
2026-05-06 07:19 42.98504 169.73352 35184 ft 575 kts 83°
2026-05-06 07:20 42.99127 169.84252 35184 ft 575 kts 83°
2026-05-06 07:20 42.99739 169.95144 35170 ft 575 kts 83°
2026-05-06 07:21 43.00879 170.05926 35184 ft 572 kts 76°
2026-05-06 07:21 43.02377 170.16595 35185 ft 572 kts 75°
2026-05-06 07:22 43.03930 170.27257 35181 ft 572 kts 75°
2026-05-06 07:22 43.05472 170.37936 35176 ft 572 kts 76°
2026-05-06 07:23 43.06992 170.48629 35174 ft 572 kts 76°
2026-05-06 07:23 43.08487 170.59249 35177 ft 573 kts 76°
2026-05-06 07:24 43.09984 170.69966 35173 ft 573 kts 76°
2026-05-06 07:24 43.11470 170.80684 35174 ft 573 kts 76°
2026-05-06 07:25 43.12948 170.91408 35184 ft 573 kts 76°
2026-05-06 07:25 43.14415 171.02133 35170 ft 574 kts 76°
2026-05-06 07:26 43.15874 171.12881 35172 ft 574 kts 76°
2026-05-06 07:26 43.17316 171.23582 35167 ft 574 kts 77°
2026-05-06 07:27 43.18756 171.34350 35162 ft 574 kts 77°
2026-05-06 07:27 43.20188 171.45135 35159 ft 575 kts 77°
2026-05-06 07:28 43.21609 171.55912 35157 ft 575 kts 77°
2026-05-06 07:28 43.23722 171.72108 35158 ft 575 kts 77°
2026-05-06 07:29 43.25120 171.82918 35156 ft 576 kts 77°
2026-05-06 07:29 43.26501 171.93688 35154 ft 576 kts 77°
2026-05-06 07:30 43.27879 172.04517 35152 ft 576 kts 77°
2026-05-06 07:30 43.29247 172.15350 35151 ft 576 kts 77°
2026-05-06 07:31 43.30608 172.26214 35148 ft 577 kts 78°
2026-05-06 07:31 43.31956 172.37067 35148 ft 577 kts 78°
2026-05-06 07:32 43.33295 172.47929 35147 ft 577 kts 78°
2026-05-06 07:32 43.34626 172.58810 35146 ft 577 kts 78°
2026-05-06 07:33 43.35939 172.69633 35147 ft 577 kts 78°
2026-05-06 07:33 43.37249 172.80526 35137 ft 577 kts 78°
2026-05-06 07:34 43.38548 172.91417 35137 ft 577 kts 78°
2026-05-06 07:34 43.39837 173.02322 35132 ft 577 kts 78°
2026-05-06 07:35 43.41116 173.13228 35132 ft 577 kts 78°
2026-05-06 07:35 43.42378 173.24077 35130 ft 578 kts 78°
2026-05-06 07:36 43.43638 173.35006 35127 ft 579 kts 78°
2026-05-06 07:36 43.44888 173.45950 35115 ft 579 kts 78°
2026-05-06 07:37 43.46128 173.56897 35128 ft 579 kts 79°
2026-05-06 07:37 43.47360 173.67870 35117 ft 580 kts 79°
2026-05-06 07:38 43.48376 173.77000 35113 ft 580 kts 79°
2026-05-06 07:38 43.49588 173.87971 35111 ft 580 kts 79°
2026-05-06 07:39 43.50792 173.98980 35112 ft 581 kts 79°
2026-05-06 07:39 43.51987 174.09997 35097 ft 581 kts 79°
2026-05-06 07:40 43.53163 174.20947 35099 ft 581 kts 79°
2026-05-06 07:40 43.54337 174.31974 35097 ft 581 kts 79°
2026-05-06 07:41 43.55501 174.43013 35091 ft 582 kts 80°
2026-05-06 07:41 43.56655 174.54064 35087 ft 582 kts 80°
2026-05-06 07:42 43.57798 174.65123 35084 ft 582 kts 80°
2026-05-06 07:42 43.58932 174.76191 35081 ft 583 kts 80°
2026-05-06 07:43 43.60058 174.87295 35079 ft 583 kts 80°
2026-05-06 07:43 43.61170 174.98378 35073 ft 583 kts 81°
2026-05-06 07:44 43.62266 175.09396 35070 ft 583 kts 81°
2026-05-06 07:44 43.63361 175.20528 35066 ft 584 kts 81°
2026-05-06 07:45 43.64444 175.31647 35064 ft 584 kts 81°
2026-05-06 07:45 43.65515 175.42752 35056 ft 584 kts 81°
2026-05-06 07:46 43.66570 175.53809 35051 ft 584 kts 82°
2026-05-06 07:46 43.67622 175.64962 35048 ft 585 kts 82°
2026-05-06 07:47 43.68662 175.76097 35044 ft 585 kts 82°
2026-05-06 07:47 43.69692 175.87243 35041 ft 585 kts 82°
2026-05-06 07:48 43.70712 175.98408 35034 ft 585 kts 82°
2026-05-06 07:48 43.71720 176.09563 35029 ft 585 kts 82°
2026-05-06 07:49 43.72718 176.20725 35023 ft 585 kts 82°
2026-05-06 07:49 43.73706 176.31902 35025 ft 586 kts 83°
2026-05-06 07:50 43.74684 176.43097 35024 ft 587 kts 83°
2026-05-06 07:50 43.75646 176.54240 35012 ft 587 kts 83°
2026-05-06 07:51 43.76603 176.65449 35015 ft 587 kts 83°
2026-05-06 07:51 43.77550 176.76667 35017 ft 586 kts 83°
2026-05-06 07:52 43.78484 176.87872 35008 ft 586 kts 83°
2026-05-06 07:52 43.79410 176.99118 35006 ft 586 kts 83°
2026-05-06 07:53 43.80314 177.10241 34994 ft 585 kts 83°
2026-05-06 07:53 43.81214 177.21435 34993 ft 584 kts 83°
2026-05-06 07:54 43.82103 177.32642 34988 ft 584 kts 83°
2026-05-06 07:54 43.82976 177.43772 34986 ft 585 kts 84°
2026-05-06 07:55 43.83842 177.54976 34986 ft 585 kts 84°
2026-05-06 07:55 43.84698 177.66184 34977 ft 585 kts 84°
2026-05-06 07:56 43.85543 177.77389 34972 ft 586 kts 84°
2026-05-06 07:56 43.86380 177.88648 34969 ft 587 kts 84°
2026-05-06 07:57 43.87206 177.99911 34966 ft 587 kts 85°
2026-05-06 07:57 43.88022 178.11183 34957 ft 587 kts 85°
2026-05-06 07:58 43.88823 178.22414 34956 ft 589 kts 85°
2026-05-06 07:58 43.89619 178.33725 34953 ft 589 kts 85°
2026-05-06 07:59 43.90405 178.45057 34947 ft 589 kts 85°
2026-05-06 07:59 43.91176 178.56338 34942 ft 591 kts 85°
2026-05-06 08:00 43.91940 178.67683 34940 ft 591 kts 86°
2026-05-06 08:00 43.92695 178.79058 34926 ft 592 kts 86°
2026-05-06 08:01 43.93438 178.90433 34931 ft 592 kts 86°
2026-05-06 08:01 43.94171 179.01833 34923 ft 594 kts 86°
2026-05-06 08:02 43.94894 179.13256 34922 ft 594 kts 86°
2026-05-06 08:02 43.95605 179.24668 34906 ft 594 kts 86°
2026-05-06 08:03 43.96306 179.36096 34911 ft 595 kts 86°
2026-05-06 08:03 43.96996 179.47556 34906 ft 595 kts 86°
2026-05-06 08:04 43.97671 179.58940 34895 ft 595 kts 86°
2026-05-06 08:04 43.98339 179.70403 34883 ft 595 kts 87°
2026-05-06 08:05 43.98995 179.81856 34881 ft 594 kts 87°
2026-05-06 08:05 43.99639 179.93301 34875 ft 594 kts 87°
2026-05-06 08:06 44.00261 -179.95245 34853 ft 594 kts 88°
2026-05-06 08:06 44.00752 -179.83869 34865 ft 593 kts 89°
2026-05-06 08:07 44.01197 -179.72417 34864 ft 593 kts 89°
2026-05-06 08:07 44.01648 -179.60954 34858 ft 593 kts 89°
2026-05-06 08:08 44.02102 -179.49501 34850 ft 593 kts 89°
2026-05-06 08:08 44.02548 -179.38050 34842 ft 593 kts 89°
2026-05-06 08:09 44.02979 -179.26669 34846 ft 591 kts 89°
2026-05-06 08:09 44.03399 -179.15287 34838 ft 588 kts 89°
2026-05-06 08:10 44.03805 -179.03936 34840 ft 588 kts 89°
2026-05-06 08:10 44.04199 -178.92584 34840 ft 588 kts 90°
2026-05-06 08:11 44.04583 -178.81236 34825 ft 588 kts 90°
2026-05-06 08:11 44.04953 -178.69933 34840 ft 588 kts 90°
2026-05-06 08:12 44.05315 -178.58581 34845 ft 588 kts 90°
2026-05-06 08:12 44.05665 -178.47215 34822 ft 588 kts 90°
2026-05-06 08:13 44.06005 -178.35821 34850 ft 590 kts 91°
2026-05-06 08:13 44.06331 -178.24472 34856 ft 590 kts 91°
2026-05-06 08:14 44.06649 -178.13066 34862 ft 590 kts 91°
2026-05-06 08:14 44.06955 -178.01669 34858 ft 591 kts 92°
2026-05-06 08:15 44.07251 -177.90225 34867 ft 592 kts 92°
2026-05-06 08:15 44.07535 -177.78794 34873 ft 592 kts 92°
2026-05-06 08:16 44.07808 -177.67352 34858 ft 591 kts 92°
2026-05-06 08:16 44.08070 -177.55891 34876 ft 592 kts 92°
2026-05-06 08:17 44.08320 -177.44429 34877 ft 592 kts 92°
2026-05-06 08:17 44.08558 -177.32987 34890 ft 592 kts 92°
2026-05-06 08:18 44.08786 -177.21540 34885 ft 591 kts 92°
2026-05-06 08:18 44.09001 -177.10111 34891 ft 591 kts 93°
2026-05-06 08:19 44.09203 -176.98740 34898 ft 591 kts 93°
2026-05-06 08:19 44.09396 -176.87291 34895 ft 591 kts 93°
2026-05-06 08:20 44.09577 -176.75878 34907 ft 590 kts 93°
2026-05-06 08:20 44.09746 -176.64460 34906 ft 590 kts 93°
2026-05-06 08:21 44.09904 -176.53042 34891 ft 590 kts 93°
2026-05-06 08:21 44.10050 -176.41720 34918 ft 589 kts 93°
2026-05-06 08:22 44.10185 -176.30317 34922 ft 589 kts 93°
2026-05-06 08:22 44.10309 -176.18907 34924 ft 589 kts 93°
2026-05-06 08:23 44.10422 -176.07520 34924 ft 587 kts 92°
2026-05-06 08:23 44.10523 -175.96165 34925 ft 586 kts 93°
2026-05-06 08:24 44.10612 -175.84822 34930 ft 586 kts 93°
2026-05-06 08:24 44.10689 -175.73557 34930 ft 586 kts 93°
2026-05-06 08:25 44.10756 -175.62211 34933 ft 586 kts 93°
2026-05-06 08:25 44.10812 -175.50860 34936 ft 586 kts 93°
2026-05-06 08:26 44.10856 -175.39508 34926 ft 586 kts 93°
2026-05-06 08:26 44.10891 -175.28178 34941 ft 584 kts 93°
2026-05-06 08:27 44.10913 -175.16866 34944 ft 584 kts 93°
2026-05-06 08:27 44.10923 -175.07472 34949 ft 584 kts 93°
2026-05-06 08:28 44.10924 -174.96161 34955 ft 584 kts 92°
2026-05-06 08:28 44.10915 -174.84842 34955 ft 584 kts 92°
2026-05-06 08:29 44.10895 -174.73536 34957 ft 584 kts 93°
2026-05-06 08:29 44.10863 -174.62246 34951 ft 583 kts 92°
2026-05-06 08:30 44.10820 -174.51033 34961 ft 582 kts 92°
2026-05-06 08:30 44.10767 -174.39744 34960 ft 582 kts 92°
2026-05-06 08:31 44.10702 -174.28470 34938 ft 582 kts 93°
2026-05-06 08:31 44.10626 -174.17279 34960 ft 580 kts 92°
2026-05-06 08:32 44.10540 -174.06058 34958 ft 580 kts 92°
2026-05-06 08:32 44.10442 -173.94839 34958 ft 580 kts 92°
2026-05-06 08:33 44.10333 -173.83613 34957 ft 579 kts 92°
2026-05-06 08:33 44.10214 -173.72413 34955 ft 578 kts 92°
2026-05-06 08:34 44.10016 -173.55688 34955 ft 578 kts 92°
2026-05-06 08:35 44.09870 -173.44512 34948 ft 576 kts 92°
2026-05-06 08:35 44.09713 -173.33373 34954 ft 575 kts 92°
2026-05-06 08:36 44.09546 -173.22235 34950 ft 575 kts 92°
2026-05-06 08:36 44.09368 -173.11113 34945 ft 575 kts 91°
2026-05-06 08:37 44.09180 -173.00069 34946 ft 573 kts 91°
2026-05-06 08:37 44.08982 -172.88985 34941 ft 573 kts 92°
2026-05-06 08:38 44.08772 -172.77908 34943 ft 573 kts 92°
2026-05-06 08:38 44.08552 -172.66833 34935 ft 571 kts 91°
2026-05-06 08:39 44.08322 -172.55785 34934 ft 571 kts 91°
2026-05-06 08:39 44.08083 -172.44822 34936 ft 571 kts 91°
2026-05-06 08:40 44.07831 -172.33753 34924 ft 570 kts 91°
2026-05-06 08:40 44.07570 -172.22732 34921 ft 569 kts 91°
2026-05-06 08:41 44.07298 -172.11729 34924 ft 569 kts 91°
2026-05-06 08:41 44.07016 -172.00720 34924 ft 569 kts 91°
2026-05-06 08:42 44.06725 -171.89795 34923 ft 569 kts 91°
2026-05-06 08:42 44.06422 -171.78796 34915 ft 569 kts 91°
2026-05-06 08:43 44.06108 -171.67782 34920 ft 569 kts 92°
2026-05-06 08:43 44.05783 -171.56785 34919 ft 569 kts 91°
2026-05-06 08:44 44.05448 -171.45790 34914 ft 569 kts 91°
2026-05-06 08:44 44.05103 -171.34795 34911 ft 569 kts 91°
2026-05-06 08:45 44.04750 -171.23880 34909 ft 569 kts 91°
2026-05-06 08:45 44.04383 -171.12897 34911 ft 568 kts 91°
2026-05-06 08:46 44.04007 -171.01919 34904 ft 568 kts 91°
2026-05-06 08:46 44.03620 -170.90952 34904 ft 568 kts 91°
2026-05-06 08:47 44.03226 -170.80078 34904 ft 566 kts 91°
2026-05-06 08:47 44.02820 -170.69149 34895 ft 566 kts 91°
2026-05-06 08:48 44.02404 -170.58234 34901 ft 565 kts 91°
2026-05-06 08:48 44.01977 -170.47314 34906 ft 565 kts 90°
2026-05-06 08:49 44.01541 -170.36437 34904 ft 563 kts 91°
2026-05-06 08:49 44.01096 -170.25565 34895 ft 563 kts 91°
2026-05-06 08:50 44.00643 -170.14769 34898 ft 563 kts 90°
2026-05-06 08:50 44.00200 -170.03925 34887 ft 561 kts 88°
2026-05-06 08:50 44.00392 -169.98540 34893 ft 555 kts 77°
2026-05-06 08:51 44.00990 -169.93260 34892 ft 552 kts 75°
2026-05-06 08:51 44.02436 -169.82792 34892 ft 552 kts 73°
2026-05-06 08:52 44.03975 -169.72358 34893 ft 549 kts 73°
2026-05-06 08:52 44.05487 -169.61973 34892 ft 547 kts 73°
2026-05-06 08:53 44.06968 -169.51595 34888 ft 547 kts 73°
2026-05-06 08:53 44.08433 -169.41197 34899 ft 548 kts 73°
2026-05-06 08:54 44.09882 -169.30822 34888 ft 544 kts 73°
2026-05-06 08:54 44.11317 -169.20488 34886 ft 543 kts 73°
2026-05-06 08:55 44.12743 -169.10163 34887 ft 543 kts 73°
2026-05-06 08:55 44.14157 -168.99838 34888 ft 542 kts 72°
2026-05-06 08:56 44.15546 -168.89617 34882 ft 539 kts 72°
2026-05-06 08:56 44.16935 -168.79341 34881 ft 539 kts 72°
2026-05-06 08:57 44.18306 -168.69133 34881 ft 539 kts 73°
2026-05-06 08:57 44.19672 -168.58875 34880 ft 536 kts 72°
2026-05-06 08:58 44.21023 -168.48652 34882 ft 535 kts 72°
2026-05-06 08:58 44.22365 -168.38439 34870 ft 535 kts 72°
2026-05-06 08:59 44.23689 -168.28289 34871 ft 535 kts 72°
2026-05-06 08:59 44.25015 -168.18046 34869 ft 536 kts 73°
2026-05-06 09:00 44.26331 -168.07798 34874 ft 536 kts 73°
2026-05-06 09:00 44.27636 -167.97569 34884 ft 536 kts 73°
2026-05-06 09:01 44.28931 -167.87325 34875 ft 534 kts 72°
2026-05-06 09:01 44.30211 -167.77126 34874 ft 533 kts 72°
2026-05-06 09:02 44.31475 -167.66988 34880 ft 533 kts 72°
2026-05-06 09:02 44.32739 -167.56779 34903 ft 533 kts 72°
2026-05-06 09:03 44.33987 -167.46604 34870 ft 530 kts 72°
2026-05-06 09:03 44.35223 -167.36457 34869 ft 530 kts 72°
2026-05-06 09:04 44.36454 -167.26286 34868 ft 530 kts 72°
2026-05-06 09:04 44.37672 -167.16133 34885 ft 530 kts 72°
2026-05-06 09:05 44.38870 -167.06060 34868 ft 528 kts 72°
2026-05-06 09:05 44.40066 -166.95929 34863 ft 527 kts 72°
2026-05-06 09:06 44.41253 -166.85803 34862 ft 528 kts 72°
2026-05-06 09:06 44.42431 -166.75669 34881 ft 528 kts 72°
2026-05-06 09:07 44.43593 -166.65571 34860 ft 524 kts 72°
2026-05-06 09:07 44.44737 -166.55569 34865 ft 523 kts 72°
2026-05-06 09:08 44.45881 -166.45501 34860 ft 524 kts 72°
2026-05-06 09:08 44.47015 -166.35434 34876 ft 524 kts 71°
2026-05-06 09:09 44.48137 -166.25371 34860 ft 523 kts 71°
2026-05-06 09:09 44.49251 -166.15309 34859 ft 523 kts 71°
2026-05-06 09:10 44.50357 -166.05243 34858 ft 523 kts 72°
2026-05-06 09:10 44.51453 -165.95178 34892 ft 523 kts 71°
2026-05-06 09:11 44.52541 -165.85097 34865 ft 523 kts 71°
2026-05-06 09:11 44.53623 -165.74989 34865 ft 524 kts 71°
2026-05-06 09:12 44.54688 -165.64949 34862 ft 524 kts 71°
2026-05-06 09:12 44.55751 -165.54844 34901 ft 524 kts 71°
2026-05-06 09:13 44.56802 -165.44743 34863 ft 522 kts 71°
2026-05-06 09:13 44.57844 -165.34656 34864 ft 522 kts 71°
2026-05-06 09:14 44.58873 -165.24627 34862 ft 522 kts 71°
2026-05-06 09:14 44.59899 -165.14531 34865 ft 522 kts 71°
2026-05-06 09:15 44.60909 -165.04464 34870 ft 519 kts 71°
2026-05-06 09:15 44.61908 -164.94431 34873 ft 518 kts 71°
2026-05-06 09:16 44.62902 -164.84399 34872 ft 518 kts 71°
2026-05-06 09:16 44.63879 -164.74427 34873 ft 519 kts 71°
2026-05-06 09:17 44.64851 -164.64400 34879 ft 517 kts 71°
2026-05-06 09:17 44.65809 -164.54398 34882 ft 516 kts 71°
2026-05-06 09:18 44.66763 -164.44381 34880 ft 516 kts 71°
2026-05-06 09:18 44.67708 -164.34368 34881 ft 517 kts 71°
2026-05-06 09:19 44.68486 -164.26047 34888 ft 517 kts 71°
2026-05-06 09:19 44.69410 -164.16042 34889 ft 515 kts 71°
2026-05-06 09:20 44.70327 -164.06042 34884 ft 515 kts 71°
2026-05-06 09:20 44.71235 -163.96055 34884 ft 515 kts 71°
2026-05-06 09:21 44.72135 -163.86049 34903 ft 514 kts 71°
2026-05-06 09:21 44.73009 -163.76177 34889 ft 511 kts 71°
2026-05-06 09:22 44.73883 -163.66263 34889 ft 510 kts 71°
2026-05-06 09:22 44.74752 -163.56332 34897 ft 511 kts 71°
2026-05-06 09:23 44.75610 -163.46414 34918 ft 511 kts 72°
2026-05-06 09:23 44.76454 -163.36508 34899 ft 509 kts 72°
2026-05-06 09:24 44.77290 -163.26618 34898 ft 508 kts 72°
2026-05-06 09:24 44.78118 -163.16732 34897 ft 508 kts 72°
2026-05-06 09:25 44.78932 -163.06906 34940 ft 509 kts 72°
2026-05-06 09:25 44.79745 -162.97002 34899 ft 510 kts 74°
2026-05-06 09:26 44.80550 -162.87064 34903 ft 510 kts 74°
2026-05-06 09:26 44.81346 -162.77124 34900 ft 510 kts 74°
2026-05-06 09:27 44.82134 -162.67170 34900 ft 510 kts 74°
2026-05-06 09:27 44.82909 -162.57286 34916 ft 511 kts 77°
2026-05-06 09:28 44.83684 -162.47296 34906 ft 512 kts 77°
2026-05-06 09:28 44.84447 -162.37323 34909 ft 512 kts 77°
2026-05-06 09:29 44.85199 -162.27387 34904 ft 512 kts 77°
2026-05-06 09:29 44.85945 -162.17408 34913 ft 512 kts 78°
2026-05-06 09:30 44.86684 -162.07415 34903 ft 512 kts 78°
2026-05-06 09:30 44.87413 -161.97425 34907 ft 512 kts 78°
2026-05-06 09:31 44.88134 -161.87430 34916 ft 512 kts 78°
2026-05-06 09:31 44.88846 -161.77435 34912 ft 512 kts 80°
2026-05-06 09:32 44.89549 -161.67433 34909 ft 511 kts 81°
2026-05-06 09:32 44.90242 -161.57459 34914 ft 511 kts 81°
2026-05-06 09:33 44.90922 -161.47539 34914 ft 511 kts 81°
2026-05-06 09:33 44.91599 -161.37551 34922 ft 511 kts 81°
2026-05-06 09:34 44.92263 -161.27593 34914 ft 509 kts 81°
2026-05-06 09:34 44.92918 -161.17649 34917 ft 508 kts 81°
2026-05-06 09:35 44.93565 -161.07711 34917 ft 508 kts 81°
2026-05-06 09:35 44.94199 -160.97832 34917 ft 509 kts 82°
2026-05-06 09:36 44.94827 -160.87909 34927 ft 506 kts 82°
2026-05-06 09:36 44.95443 -160.78023 34922 ft 504 kts 82°
2026-05-06 09:37 44.96051 -160.68145 34922 ft 504 kts 82°
2026-05-06 09:37 44.96649 -160.58278 34922 ft 504 kts 83°
2026-05-06 09:38 44.97237 -160.48461 34931 ft 503 kts 83°
2026-05-06 09:38 44.97817 -160.38604 34930 ft 502 kts 83°
2026-05-06 09:39 44.98387 -160.28769 34935 ft 502 kts 83°
2026-05-06 09:39 44.98950 -160.18938 34938 ft 502 kts 83°
2026-05-06 09:40 44.99504 -160.09093 34938 ft 502 kts 83°
2026-05-06 09:40 45.00296 -159.94394 34938 ft 503 kts 84°
2026-05-06 09:41 45.00709 -159.84530 34944 ft 503 kts 85°
2026-05-06 09:41 45.01097 -159.74662 34946 ft 503 kts 85°
2026-05-06 09:42 45.01493 -159.64789 34947 ft 503 kts 85°
2026-05-06 09:42 45.01888 -159.54925 34948 ft 502 kts 85°
2026-05-06 09:43 45.02277 -159.45071 34955 ft 502 kts 85°
2026-05-06 09:43 45.02655 -159.35264 34955 ft 502 kts 85°
2026-05-06 09:44 45.03027 -159.25407 34960 ft 502 kts 85°
2026-05-06 09:44 45.03389 -159.15536 34957 ft 502 kts 85°
2026-05-06 09:45 45.03744 -159.05666 34962 ft 502 kts 86°
2026-05-06 09:45 45.04089 -158.95798 34965 ft 502 kts 86°
2026-05-06 09:46 45.04426 -158.85930 34968 ft 502 kts 86°
2026-05-06 09:46 45.04755 -158.76063 34965 ft 502 kts 87°
2026-05-06 09:47 45.05075 -158.66187 34966 ft 502 kts 87°
2026-05-06 09:47 45.05387 -158.56311 34965 ft 502 kts 87°
2026-05-06 09:48 45.05688 -158.46496 34968 ft 502 kts 87°
2026-05-06 09:48 45.05983 -158.36633 34976 ft 500 kts 89°
2026-05-06 09:49 45.06268 -158.26817 34977 ft 499 kts 89°
2026-05-06 09:49 45.06544 -158.16989 34980 ft 499 kts 89°
2026-05-06 09:50 45.06811 -158.07169 34980 ft 499 kts 89°
2026-05-06 09:50 45.07071 -157.97346 34991 ft 499 kts 90°
2026-05-06 09:51 45.07319 -157.87623 34984 ft 497 kts 89°
2026-05-06 09:51 45.07561 -157.77848 34988 ft 497 kts 89°
2026-05-06 09:52 45.07793 -157.68065 35002 ft 497 kts 89°
2026-05-06 09:52 45.08018 -157.58292 35001 ft 497 kts 90°